Terminal Aerodrome Forecast
Issued by NWS Charleston, WV

Current Version | Previous Version | Graphics & Text | Print | Product List | Glossary On
Versions: 1 2 3 4 5 6 7 8 9 10 11 12 13 14 15 16 17 18 19 20 21 22 23 24 25 26 27 28 29 30 31 32
000
FTUS41 KRLX 211900 AAA
TAFCRW
TAF AMD
KCRW 211923Z 2119/2218 28010KT P6SM SCT015 BKN050
      TEMPO 2119/2123 2SM -SHRA BR SCT008 BKN015 OVC035
     FM220000 30007KT P6SM OVC025
     FM221500 33009KT P6SM OVC025=

USA.gov is the U.S. government's official web portal to all federal, state and local government web resources and services.